Flag for Netherlands Weather past 2 weeks in Wageningen, Netherlands

Now
57 °F

Overcast.


Feels Like: 57 °F
Forecast: 48 / 61 °F
Wind: 5 mph from Southwest

Location: Deelen

Current Time: May 27, 2015 at 12:31:01 PM

Latest Report: May 27, 2015 at 11:55 AM


Visibility: N/A

Pressure: 30.21 "Hg

Humidity: 55%

Dew point: 41 °F

Location of WageningenLocation

Historic Weather in Wageningen — Graph

°F

Wageningen temperature yesterday

Maximum temperature yesterday: 57 °F (at 2:25 PM)
Minimum temperature yesterday: 45 °F (at 4:25 AM)
Average temperature yesterday: 51 °F

Past Weeks' High & Low Weather Summary

 TemperatureHumidityPressure
High66 °F (May 22, 12:55 PM)100% (May 13, 4:55 AM)30.33 "Hg (May 13, 4:55 AM)
Low34 °F (May 21, 5:55 AM)32% (May 24, 6:55 PM)29.59 "Hg (May 19, 2:25 AM)
Average52 °F72%30.06 "Hg
* Reported May 12 11:25 AM — May 27 11:25 AM, Wageningen, Weather by CustomWeather, © 2015

Note: Actual official high and low records may vary slightly from our data, if they occured in-between our weather recording intervals... More about our weather records

Advertising

Wageningen weather history for previous 24 hours

 ConditionsComfort  
Time TempWeatherWind HumidityBarometerVisibility
11:25 AM
Wed, May 27
57 °FMostly cloudy.7 mph55%30.24 "HgN/A
10:55 AM57 °FOvercast.6 mph55%30.24 "HgN/A
10:25 AM55 °FOvercast.7 mph55%30.24 "HgN/A
9:55 AM57 °FOvercast.7 mph51%30.24 "HgN/A
9:25 AM55 °FPartly sunny.7 mph59%30.24 "HgN/A
8:55 AM54 °FOvercast.6 mph63%30.24 "HgN/A
8:25 AM52 °FOvercast.3 mph77%30.24 "HgN/A
7:55 AM50 °FOvercast.3 mph88%30.24 "HgN/A
7:25 AM46 °FOvercast.1 mph93%30.24 "HgN/A
6:55 AM41 °FPassing clouds.No wind93%30.24 "HgN/A
6:25 AM39 °FClear.No wind93%30.24 "HgN/A
5:25 AM39 °FPassing clouds.2 mph93%30.24 "HgN/A
4:55 AM39 °FPassing clouds.2 mph93%30.24 "HgN/A
4:25 AM41 °FPassing clouds.1 mph93%30.24 "HgN/A
3:55 AM41 °FQuite cool.2 mph93%30.24 "HgN/A
3:25 AM45 °FPassing clouds.2 mph87%30.24 "HgN/A
2:55 AM48 °FPassing clouds.1 mph76%30.24 "HgN/A
2:25 AM48 °FOvercast.2 mph76%30.24 "HgN/A
1:55 AM48 °FOvercast.2 mph76%30.24 "HgN/A
1:25 AM48 °FOvercast.No wind82%30.24 "HgN/A
12:55 AM48 °FOvercast.1 mph82%30.24 "HgN/A
12:25 AM50 °FOvercast.3 mph71%30.24 "HgN/A
11:55 PM
Tue, May 26
50 °FOvercast.5 mph71%30.24 "HgN/A
11:25 PM50 °FOvercast.3 mph71%30.24 "HgN/A
10:55 PM50 °FOvercast.5 mph71%30.24 "HgN/A
10:25 PM52 °FOvercast.5 mph67%30.24 "HgN/A
9:55 PM52 °FOvercast.7 mph67%30.24 "HgN/A
9:25 PM52 °FOvercast.8 mph67%30.21 "HgN/A
8:55 PM52 °FOvercast.9 mph62%30.21 "HgN/A
8:25 PM54 °FOvercast.9 mph58%30.21 "HgN/A
7:55 PM54 °FMore clouds than sun.13 mph63%30.21 "HgN/A
7:25 PM54 °FMostly cloudy.13 mph63%30.21 "HgN/A
6:55 PM55 °FPartly sunny.16 mph55%30.18 "HgN/A
6:25 PM55 °FPartly sunny.14 mph59%30.18 "HgN/A
5:55 PM55 °FMostly cloudy.13 mph59%30.18 "HgN/A
5:25 PM55 °FMostly cloudy.15 mph59%30.18 "HgN/A
4:55 PM55 °FMore clouds than sun.15 mph59%30.15 "HgN/A
4:25 PM55 °FMostly cloudy.14 mph55%30.15 "HgN/A
3:55 PM55 °FMostly cloudy.14 mph55%30.15 "HgN/A
3:25 PM55 °FMostly cloudy.14 mph59%30.15 "HgN/A
2:55 PM57 °FMostly cloudy.12 mph55%30.15 "HgN/A
2:25 PM57 °FBroken clouds.13 mph51%30.12 "HgN/A
1:55 PM55 °FMore clouds than sun.16 mph55%30.12 "HgN/A
1:25 PM55 °FBroken clouds.16 mph51%30.12 "HgN/A
12:55 PM55 °FScattered clouds.12 mph59%30.12 "HgN/A
12:25 PM54 °FBroken clouds.16 mph67%30.12 "HgN/A
Weather by CustomWeather, © 2015

See weather overviewHow to use our weather pages